Flag for U.S.A. Weather past 2 weeks in Galveston, Texas, U.S.A.

Now
86 °F

Clear.


Feels Like: 97 °F
Forecast: 81 / 92 °F
Wind: 12 mph from South

Location: Scholes Field

Current Time: Jul 29, 2015 at 12:03:35 AM

Latest Report: Jul 28, 2015 at 10:52 PM


Visibility: 10 mi

Pressure: 30.00 "Hg

Humidity: 75%

Dew point: 77 °F

Location of GalvestonLocation

Historic Weather in Galveston — Graph

°F

Galveston temperature yesterday

Maximum temperature yesterday: 92 °F (at 2:52 PM)
Minimum temperature yesterday: 83 °F (at 6:52 AM)
Average temperature yesterday: 87 °F

Past Weeks' High & Low Weather Summary

 TemperatureHumidityPressure
High92 °F (Jul 17, 1:52 PM)91% (Jul 20, 4:52 AM)30.08 "Hg (Jul 20, 4:52 AM)
Low81 °F (Jul 15, 6:52 AM)59% (Jul 26, 10:52 AM)29.88 "Hg (Jul 14, 7:52 PM)
Average87 °F74%29.97 "Hg
* Reported Jul 13 9:52 PM — Jul 28 9:52 PM, Galveston, Weather by CustomWeather, © 2015

Note: Actual official high and low records may vary slightly from our data, if they occured in-between our weather recording intervals... More about our weather records

Advertising

Galveston weather history for previous 24 hours

 ConditionsComfort  
Time TempWeatherWind HumidityBarometerVisibility
9:52 PM
Tue, Jul 28
86 °FClear.14 mph75%29.98 "Hg10 mi
8:52 PM86 °FPassing clouds.13 mph75%29.98 "Hg10 mi
7:52 PM87 °FSunny.13 mph72%29.98 "Hg10 mi
6:52 PM89 °FSunny.14 mph65%29.97 "Hg10 mi
5:52 PM90 °FSunny.16 mph63%29.97 "Hg10 mi
4:52 PM91 °FSunny.9 mph61%29.97 "Hg10 mi
3:52 PM91 °FSunny.12 mph61%29.97 "Hg10 mi
2:52 PM92 °FSunny.12 mph60%29.99 "Hg10 mi
1:52 PM91 °FSunny.12 mph60%30.00 "Hg10 mi
12:52 PM91 °FSunny.12 mph61%30.01 "Hg10 mi
11:52 AM90 °FSunny.9 mph61%30.01 "Hg10 mi
10:52 AM90 °FSunny.8 mph61%30.01 "Hg10 mi
9:52 AM89 °FSunny.7 mph63%30.01 "Hg10 mi
8:59 AM88 °FScattered clouds.10 mph70%30.02 "Hg10 mi
7:52 AM85 °FSunny.8 mph80%30.00 "Hg10 mi
6:52 AM83 °FClear.3 mph82%29.98 "Hg10 mi
5:52 AM84 °FClear.7 mph80%29.96 "Hg10 mi
4:52 AM84 °FClear.8 mph80%29.95 "Hg10 mi
3:52 AM84 °FClear.8 mph80%29.95 "Hg10 mi
2:52 AM84 °FClear.9 mph77%29.96 "Hg10 mi
1:52 AM85 °FClear.10 mph75%29.97 "Hg10 mi
12:52 AM85 °FClear.12 mph77%29.97 "Hg10 mi
Weather by CustomWeather, © 2015

See weather overviewHow to use our weather pages